Regional Weather Roundup
Issued by NWS

Home | Current Version | Previous Version | Graphics & Text | Print | Product List | Glossary Off
Versions: 1 2 3 4 5 6 7 8 9 10 11 12 13 14 15 16 17 18 19 20 21 22 23 24 25 26 27 28 29 30 31 32 33 34 35 36 37 38 39 40 41 42 43 44 45 46 47 48 49 50

000
ASUS43 KLSX 252307
RWRMO

WEATHER SUMMARY FOR MISSOURI
NATIONAL WEATHER SERVICE SPRINGFIELD MO
500 PM CST SUN FEB 25 2018

NOTE: "FAIR" INDICATES FEW OR NO CLOUDS BELOW 12,000 FEET WITH NO
       SIGNIFICANT WEATHER AND/OR OBSTRUCTIONS TO VISIBILITY.
       CURRENT SKY AND/OR WEATHER CONDITIONS ARE NOT AVAILABLE FOR
       CHILLICOTHE AND FARMINGTON.

MOZ001>031-035>038-043-044-053-054-260000-
...NORTHERN AND WESTERN MISSOURI...

CITY           SKY/WX    TMP DP  RH WIND       PRES   REMARKS
KANSAS CTY INT MOSUNNY   49  21  33 S6        30.05S
KANSAS C DTWN  MOSUNNY   51  19  28 W5        30.05S
LEE`S SUMMIT   CLOUDY    49  25  39 S8        30.06S
ST JOSEPH      CLOUDY    48  29  47 S5        30.05S
CHILLICOTHE      N/A     50  18  28 SW5       30.07R
KIRKSVILLE     PTCLDY    47  22  37 W7G18     30.07R

$$
MOZ066>068-077>081-088>096-101>105-260000-
...SOUTHWEST MISSOURI...

CITY           SKY/WX    TMP DP  RH WIND       PRES   REMARKS
SPRINGFIELD    SUNNY     55  25  31 VRB5      30.03F
JOPLIN         SUNNY     55  34  45 VRB6      30.03S
BRANSON        MOSUNNY   55  28  35 SE14      30.03F

$$
MOZ032>034-039>042-045>050-055>058-069>072-260000-
...CENTRAL MISSOURI...

CITY           SKY/WX    TMP DP  RH WIND       PRES   REMARKS
COLUMBIA       CLEAR     50  23  34 SW5       30.09R
JEFFERSON CITY CLEAR     52  21  29 CALM      30.09R
ROLLA          CLEAR     50  26  39 SW6       30.07F
SEDALIA        CLOUDY    50  27  40 CALM      30.09S
WHITEMAN AFB   PTSUNNY   50  21  32 CALM      30.05R
WARRENSBURG    CLOUDY    46  27  46 S3        30.08R
OSAGE BEACH    SUNNY     53  22  29 CALM      30.08S

$$
MOZ051-052-059>065-260000-
...EAST CENTRAL MISSOURI...

CITY           SKY/WX    TMP DP  RH WIND       PRES   REMARKS
ST LOUIS INTL  PTCLDY    51  22  31 CALM      30.11S
SPIRIT OF STL  CLEAR     52  27  38 W5        30.10S
ST CHARLES       N/A     51  24  34 SW8       30.10S

$$
MOZ072>076-082>087-097>100-106>115-260000-
...SOUTH CENTRAL AND SOUTHEAST MISSOURI...

CITY           SKY/WX    TMP DP  RH WIND       PRES   REMARKS
CAPE GIRARDEAU FAIR      51  32  48 S3        30.11F
FARMINGTON     MOCLDY    54  27  35 S3        30.09S
POPLAR BLUFF   FAIR      50  36  58 SE5       30.10S
WEST PLAINS    SUNNY     53  31  42 CALM      30.06F

$$



USA.gov is the U.S. government's official web portal to all federal, state and local government web resources and services.